AKST,Max TemperatureF,Mean TemperatureF,Min TemperatureF,Max Dew PointF,MeanDew PointF,Min DewpointF,Max Humidity, Mean Humidity, Min Humidity, Max Sea Level PressureIn, Mean Sea Level PressureIn, Min Sea Level PressureIn, Max VisibilityMiles, Mean VisibilityMiles, Min VisibilityMiles, Max Wind SpeedMPH, Mean Wind SpeedMPH, Max Gust SpeedMPH,PrecipitationIn, CloudCover, Events, WindDirDegrees
2012-12-1,26,25,24,25,23,21,100,88,80,29.32,29.27,29.20,10,6,2,0,0,,0.00,8,,-1
2012-12-2,26,25,24,25,23,21,100,90,80,29.27,29.17,29.13,9,2,0,0,0,,0.00,8,,-1
2012-12-3,32,30,28,27,25,21,93,83,69,29.47,29.36,29.23,10,8,2,7,2,,0.00,8,,252
2012-12-4,30,28,26,28,26,25,93,90,86,29.47,29.26,29.11,10,5,2,7,2,,0.00,8,,254
2012-12-5,32,29,26,28,25,23,100,86,69,29.80,29.66,29.48,10,6,1,9,2,,0.00,7,Snow,257
2012-12-6,32,29,26,28,25,23,93,89,75,29.82,29.75,29.60,10,7,1,10,4,18,0.00,8,,244
2012-12-7,32,24,17,27,23,16,93,90,75,30.14,29.91,29.65,10,9,2,7,2,,0.00,6,,249
2012-12-8,30,24,17,28,21,14,93,88,80,30.22,30.13,29.86,10,8,0,10,1,,0.00,6,,238
2012-12-9,35,34,32,34,32,28,100,90,81,30.05,29.94,29.84,10,6,2,9,3,16,0.00,8,,215
2012-12-10,35,34,32,36,33,30,100,93,87,30.06,29.72,29.34,10,6,3,6,2,,0.00,7,,238
2012-12-11,37,32,28,36,32,27,100,91,81,29.87,29.59,29.34,10,8,0,7,2,,0.00,6,,219
2012-12-12,33,30,26,32,29,23,100,91,86,29.90,29.77,29.50,10,6,0,6,2,,0.25,7,,249
2012-12-13,37,35,33,34,32,30,100,89,81,29.68,29.55,29.44,10,9,3,10,3,,0.19,7,,231
2012-12-14,37,34,32,34,32,30,93,86,75,29.68,29.33,28.98,10,6,2,17,4,38,0.97,8,,103
2012-12-15,39,34,30,34,31,28,100,86,70,29.25,29.11,28.96,10,8,2,14,4,17,0.29,7,Snow,199
2012-12-16,33,30,26,30,29,21,100,91,80,29.26,29.24,29.23,10,7,2,6,0,,0.15,6,,180
2012-12-17,28,26,23,27,24,19,100,90,80,29.68,29.42,29.23,10,10,10,5,1,,0.00,5,,225
2012-12-18,32,24,17,21,18,16,93,80,55,29.70,29.55,29.27,10,10,2,8,2,,0.00,5,,214
2012-12-19,35,32,28,27,23,18,93,67,52,29.49,29.27,29.16,10,9,3,13,6,22,0.00,8,,154
2012-12-20,30,22,15,27,20,9,93,84,73,29.82,29.66,29.49,10,10,7,6,2,,0.00,4,,209
2012-12-21,21,16,12,18,13,7,100,85,74,29.91,29.87,29.83,10,10,10,6,3,,0.00,2,,226
2012-12-22,23,18,12,18,14,7,100,85,63,29.84,29.74,29.68,10,10,10,6,3,,0.00,5,,234
2012-12-23,21,16,12,16,12,9,93,83,63,29.89,29.80,29.73,10,10,10,6,1,,0.00,2,,237
2012-12-24,24,18,12,16,11,7,86,71,50,30.08,30.02,29.93,10,10,10,7,3,,0.00,2,,227
2012-12-25,26,20,14,16,13,10,86,64,51,29.93,29.83,29.77,10,10,10,9,4,,0.00,5,,257
2012-12-26,17,12,8,14,10,1,100,84,67,29.94,29.89,29.80,10,10,10,6,3,,0.00,0,,226
2012-12-27,33,24,14,30,23,12,93,86,69,29.93,29.80,29.75,10,6,1,13,5,,0.06,8,,262
2012-12-28,32,29,26,30,27,25,100,92,86,30.11,29.92,29.81,10,6,1,8,4,,0.19,8,,249
2012-12-29,35,32,30,34,30,28,100,90,81,30.18,30.14,30.05,10,8,1,8,1,,0.00,8,,252
2012-12-30,42,38,33,37,34,30,87,80,70,30.05,29.93,29.81,10,9,6,10,4,22,0.57,8,,125
2012-12-31,42,38,33,37,34,30,100,90,76,30.37,30.14,29.80,10,9,1,7,3,,0.33,7,,200